Tracking 29088 objects as of 14-Jul-2024
HD Live streaming from Space Station
objects crossing your sky now

COSMOS 1275 DEB

Track COSMOS 1275 DEB now!
10-day predictions


NORAD ID: 42122
Int'l Code: 1981-053QJ
Perigee: 891.6 km
Apogee: 1,024.5 km
Inclination: 82.9 °
Period: 104.1 minutes
Semi major axis: 7329 km
RCS: Unknown
Launch date: June 4, 1981
Source: Commonwealth of Independent States (former USSR) (CIS)
Launch site: PLESETSK MISSILE AND SPACE COMPLEX (PKMTR)

Note: This is SATELLITE DEBRIS
Your satellite tracking list
Your tracking list is empty




NASA's NSSDC Master Catalog

Two Line Element Set (TLE):
1 42122U 81053QJ  24194.65994753  .00003101  00000-0  27058-2 0  9995
2 42122  82.9315 175.2702 0090715  16.5367 343.8717 13.83669829535679
Source of the keplerian elements: AFSPC